Spokane Fairchild, WA
on Thursday, February 7, 2013

Thursday
Previous Day Next Day
Daily Summary
 ActualAverage (KGEG)Record (KGEG)
Temperature
Mean Temperature °F 32°F  
Max Temperature 40°F 38°F 53°F (1998)
Min Temperature 31°F 26°F -15°F (1883)
Degree Days
Heating Degree Days 30 33  
Month to date heating degree days 233  
Since 1 July heating degree days 4166  
Cooling Degree Days 0 0  
Month to date cooling degree days 0  
Year to date cooling degree days 0  
Moisture
Dew Point 32°F   
Average Humidity 90    
Maximum Humidity 100    
Minimum Humidity 75    
Precipitation
Precipitation 0.01 in 0.05 in 0.58 in (1894)
Month to date precipitation 0.33  
Year to date precipitation 2.12  
Snow
Snow 0.00 in 0.30 in 7.20 in (1975)
Month to date snowfall 2.0  
Since 1 July snowfall 35.5  
Snow Depth in   
Wind
Wind Speed 7 mph   
Max Wind Speed 12 mph   
Max Gust Speed mph   
Visibility 10 miles   
Events Rain , Snow   

Key: T is trace of precipitation, MM is missing value
Source: NWS Daily Summary
Time(PST)TemperatureDew PointHumidity Pressure Visibility Wind DirectionWind SpeedGust SpeedPrecipitationEvents Conditions
12:58 AM 33.6°F 31.1°F 90% 29.96 in 10.0 miles NE 10.4 mph - N/A   Partly Cloudy
1:58 AM 32.7°F 30.6°F 92% 29.96 in 10.0 miles NE 8.1 mph - N/A   Mostly Cloudy
2:58 AM 32.0°F 30.0°F 92% 29.88 in 10.0 miles ENE 9.2 mph - N/A   Scattered Clouds
2:59 AM 32.0°F 30.2°F 93% 29.88 in 10.0 miles NE 10.4 mph - N/A   Scattered Clouds
3:08 AM 32.0°F 30.2°F 93% 29.87 in 10.0 miles ENE 10.4 mph - N/A   Mostly Cloudy
3:58 AM 31.8°F 29.8°F 92% 29.93 in 10.0 miles NE 6.9 mph - 0.00 in   Mostly Cloudy
4:46 AM 32.0°F 30.2°F 93% 29.88 in 10.0 miles NW 6.9 mph - N/A   Mostly Cloudy
4:58 AM 32.9°F 29.8°F 88% 29.95 in 10.0 miles North 5.8 mph - 0.00 in   Mostly Cloudy
5:02 AM 32.0°F 30.2°F 93% 29.88 in 10.0 miles NNE 6.9 mph - N/A   Scattered Clouds
5:53 AM 32.0°F 30.2°F 93% 29.87 in 10.0 miles NE 8.1 mph - N/A   Mostly Cloudy
5:58 AM 33.3°F 30.4°F 89% 29.94 in 10.0 miles NE 9.2 mph - 0.00 in   Mostly Cloudy
6:02 AM 32.0°F 30.2°F 93% 29.87 in 10.0 miles NE 9.2 mph - N/A   Mostly Cloudy
6:58 AM 32.7°F 30.7°F 92% 29.94 in 10.0 miles NE 10.4 mph - 0.00 in   Mostly Cloudy
7:58 AM 33.8°F 30.7°F 89% 29.97 in 10.0 miles East 3.5 mph - N/A   Mostly Cloudy
8:00 AM 32.0°F 32.0°F 100% 29.90 in 10.0 miles East 4.6 mph - N/A   Mostly Cloudy
8:20 AM 33.8°F 32.0°F 93% 29.91 in 10.0 miles SSE 5.8 mph - N/A Snow Light Snow
8:58 AM 33.4°F 32.2°F 95% 29.99 in 10.0 miles Calm Calm - 0.01 in Snow Light Snow
9:18 AM 32.0°F 32.0°F 100% 29.91 in 10.0 miles South 1.2 mph - N/A Rain Light Rain
9:35 AM 33.8°F 32.0°F 93% 29.90 in 10.0 miles NE 5.8 mph - N/A   Mostly Cloudy
9:58 AM 34.7°F 33.6°F 96% 29.97 in 10.0 miles NE 5.8 mph - 0.00 in   Overcast
10:58 AM 37.4°F 33.8°F 87% 29.97 in 10.0 miles ESE 4.6 mph - N/A   Overcast
11:30 AM 39.2°F 33.8°F 81% 29.91 in 10.0 miles SSE 6.9 mph - N/A   Mostly Cloudy
11:48 AM 39.2°F 33.8°F 81% 29.91 in 10.0 miles SSE 4.6 mph - N/A   Mostly Cloudy
11:58 AM 39.2°F 34.0°F 82% 29.97 in 10.0 miles South 6.9 mph - 0.00 in   Overcast
12:23 PM 39.2°F 32.0°F 75% 29.90 in 10.0 miles SSW 6.9 mph - N/A   Overcast
12:28 PM 39.2°F 32.0°F 75% 29.90 in 10.0 miles South 8.1 mph - N/A   Overcast
12:33 PM 39.2°F 32.0°F 75% 29.90 in 10.0 miles SSW 6.9 mph - N/A   Overcast
12:40 PM 39.2°F 32.0°F 75% 29.90 in 10.0 miles SW 8.1 mph - N/A   Overcast
12:55 PM 39.2°F 32.0°F 75% 29.90 in 10.0 miles SW 9.2 mph - N/A   Overcast
12:57 PM 39.2°F 32.0°F 75% 29.90 in 10.0 miles SW 10.4 mph - N/A   Overcast
12:58 PM 40.1°F 32.9°F 75% 29.96 in 10.0 miles SW 10.4 mph - 0.00 in   Overcast
1:03 PM 39.2°F 32.0°F 75% 29.90 in 10.0 miles SW 10.4 mph - N/A   Overcast
1:12 PM 37.4°F 32.0°F 81% 29.90 in 10.0 miles SW 11.5 mph - N/A   Overcast
1:13 PM 37.4°F 32.0°F 81% 29.90 in 10.0 miles SW 10.4 mph - N/A   Overcast
1:23 PM 37.4°F 32.0°F 81% 29.90 in 10.0 miles SW 8.1 mph - N/A   Overcast
1:58 PM 38.1°F 32.4°F 80% 29.96 in 10.0 miles WSW 8.1 mph - 0.00 in   Partly Cloudy
2:58 PM 37.2°F 33.1°F 85% 29.97 in 10.0 miles WSW 6.9 mph - N/A   Overcast
3:58 PM 36.1°F 32.7°F 87% 29.99 in 10.0 miles SW 3.5 mph - N/A   Overcast
4:18 PM 35.6°F 32.0°F 87% 29.92 in 10.0 miles SSW 2.3 mph - N/A   Overcast
4:58 PM 36.1°F 32.5°F 87% 30.00 in 10.0 miles SSW 4.6 mph - N/A   Overcast
5:13 PM 35.6°F 32.0°F 87% 29.93 in 10.0 miles SSW 4.6 mph - N/A   Overcast
5:23 PM 35.6°F 32.0°F 87% 29.93 in 10.0 miles SSW 4.6 mph - N/A Rain Light Rain
5:30 PM 35.6°F 32.0°F 87% 29.93 in 10.0 miles SSW 5.8 mph - N/A   Overcast
5:58 PM 34.7°F 32.7°F 92% 30.01 in 10.0 miles SSW 4.6 mph - 0.00 in   Overcast
6:10 PM 35.6°F 32.0°F 87% 29.94 in 10.0 miles SSW 3.5 mph - N/A   Overcast
6:15 PM 35.6°F 32.0°F 87% 29.94 in 10.0 miles SW 3.5 mph - N/A   Overcast
6:25 PM 33.8°F 32.0°F 93% 29.94 in 10.0 miles WSW 3.5 mph - N/A   Mostly Cloudy
6:35 PM 33.8°F 32.0°F 93% 29.94 in 10.0 miles SSW 2.3 mph - N/A   Mostly Cloudy
6:40 PM 33.8°F 32.0°F 93% 29.94 in 10.0 miles Variable 1.2 mph - N/A   Mostly Cloudy
6:45 PM 33.8°F 32.0°F 93% 29.94 in 10.0 miles East 3.5 mph - N/A   Light Drizzle
6:48 PM 33.8°F 32.0°F 93% 29.95 in 10.0 miles ESE 3.5 mph - N/A   Overcast
6:58 PM 34.3°F 32.5°F 93% 30.02 in 10.0 miles SE 2.3 mph - 0.00 in   Overcast
7:28 PM 33.8°F 32.0°F 93% 29.95 in 10.0 miles SSW 2.3 mph - N/A   Mostly Cloudy
7:33 PM 33.8°F 32.0°F 93% 29.95 in 10.0 miles South 2.3 mph - N/A   Mostly Cloudy
7:48 PM 33.8°F 32.0°F 93% 29.96 in 10.0 miles SSW 2.3 mph - N/A   Scattered Clouds
7:53 PM 33.8°F 32.0°F 93% 29.96 in 10.0 miles SSW 2.3 mph - N/A   Mostly Cloudy
7:58 PM 34.0°F 32.7°F 95% 30.03 in 10.0 miles SW 3.5 mph - N/A   Mostly Cloudy
7:59 PM 33.8°F 32.0°F 93% 29.96 in 10.0 miles SW 3.5 mph - N/A   Mostly Cloudy
8:02 PM 33.8°F 32.0°F 93% 29.96 in 10.0 miles SW 3.5 mph - N/A   Mostly Cloudy
8:12 PM 33.8°F 32.0°F 93% 29.96 in 10.0 miles SW 3.5 mph - N/A   Mostly Cloudy
8:17 PM 33.8°F 32.0°F 93% 29.96 in 10.0 miles SW 3.5 mph - N/A   Overcast
8:30 PM 32.0°F 32.0°F 100% 29.96 in 10.0 miles SSW 4.6 mph - N/A   Overcast
8:50 PM 32.0°F 32.0°F 100% 29.97 in 10.0 miles SSW 4.6 mph - N/A   Overcast
8:58 PM 33.4°F 32.7°F 97% 30.04 in 10.0 miles SSW 4.6 mph - 0.00 in   Mostly Cloudy
9:58 PM 33.1°F 32.4°F 97% 30.05 in 10.0 miles SSW 4.6 mph - N/A   Scattered Clouds
10:02 PM 32.0°F 32.0°F 100% 29.98 in 10.0 miles SSW 4.6 mph - N/A   Scattered Clouds
10:32 PM 32.0°F 32.0°F 100% 29.98 in 10.0 miles SSW 4.6 mph - N/A   Overcast
10:37 PM 32.0°F 32.0°F 100% 29.98 in 10.0 miles SSW 3.5 mph - N/A   Overcast
10:52 PM 32.0°F 32.0°F 100% 29.99 in 10.0 miles SSW 3.5 mph - N/A   Overcast
10:57 PM 32.0°F 32.0°F 100% 29.99 in 10.0 miles SSW 3.5 mph - N/A   Overcast
10:58 PM 32.9°F 32.4°F 98% 30.05 in 10.0 miles SSW 3.5 mph - N/A   Overcast
11:58 PM 32.4°F 32.2°F 99% 30.06 in 10.0 miles South 3.5 mph - N/A   Overcast
Moon Phase
Feb. 07 Feb. 10 Feb. 17 Feb. 25 Mar. 04
Sunrise:07:08 AM (PST) Moon Rise:04:58 AM (PST)2/7
Sunset:05:01 PM (PST) Moon Set:02:25 PM (PST)2/7

Copyright © 2014 The Weather Underground, Inc.